Location: *
(37.5724°S, 58.0067°E)
Time: 11:39:42
(UTC+00:00)

Hubble Space Telescope - Pass Details

Date: 26 September 2020
Orbit: 536 x 540 km, 28.5° (Epoch: 29 October)

Event Time Altitude Azimuth Distance (km) Brightness Sun altitude
Rises 14:52:34 0° 289° (WNW) 2,694 5.5 -9.6°
Reaches altitude 10° 14:55:11 10° 304° (WNW) 1,802 4.2 -10.1°
Maximum altitude 14:58:29 23° 356° (N) 1,193 2.5 -10.7°
Enters shadow 15:01:27 11° 45° (NE) 1,708 2.8 -11.3°
